Regional Weather Roundup
Issued by NWS

Home | Current Version | Previous Version | Text Only | Print | Product List | Glossary On
Versions: 1 2 3 4 5 6 7 8 9 10 11 12 13 14 15 16 17 18 19 20 21 22 23 24 25 26 27 28 29 30 31 32 33 34 35 36 37 38 39 40 41 42 43 44 45 46 47 48 49 50
000
ASUS45 KCYS 200010
RWRWY

WYOMING REGIONAL WEATHER ROUNDUP
NATIONAL WEATHER SERVICE CHEYENNE WY
600 PM MDT FRI SEP 19 2014

NOTE:  "FAIR" INDICATES FEW OR NO CLOUDS BELOW 12,000 FEET
WITH NO SIGNIFICANT WEATHER AND/OR OBSTRUCTIONS TO VISIBILITY.

WYZ001-200100-
YELLOWSTONE NATIONAL PARK

CITY           SKY/WX    TMP DP  RH WIND       PRES   REMARKS
LK YELLOWSTONE   N/A     61  39  44 W7        30.24R
6HR MIN TEMP:  56; 6HR MAX TEMP:  63;

W YELLOWSTONE  NOT AVBL

$$
WYZ002>013-054>058-071-098>099-200100-
NORTHERN WYOMING

CITY           SKY/WX    TMP DP  RH WIND       PRES   REMARKS
JACKSON        SUNNY     72  36  26 W14       30.16R
CODY             N/A    N/A N/A N/A MISG        N/A
GREYBULL       MOSUNNY   82  43  25 NW8       29.90R
6HR MIN TEMP:  74; 6HR MAX TEMP:  83;

WORLAND        MOSUNNY   80  45  28 N8        29.92R
6HR MIN TEMP:  74; 6HR MAX TEMP:  82;

SHERIDAN       PTSUNNY   71  48  43 NW10      29.96R
6HR MIN TEMP:  71; 6HR MAX TEMP:  78;

BUFFALO        MOSUNNY   68  46  45 N13G23    30.01R
6HR MIN TEMP:  68; 6HR MAX TEMP:  76;

GILLETTE       SUNNY     73  47  39 N18       29.95R
6HR MIN TEMP:  73; 6HR MAX TEMP:  78;

HULETT         FAIR      72  45  37 MISG      29.96
NEWCASTLE      FAIR      79  41  25 N12       29.92

$$
WYZ014>020-022>026-101>103-200100-
CENTRAL WYOMING

CITY           SKY/WX    TMP DP  RH WIND       PRES   REMARKS
BIG PINEY      SUNNY     72  32  23 NW13      30.18S
6HR MIN TEMP:  67; 6HR MAX TEMP:  75;

PINEDALE       CLEAR     68  34  28 W13       30.19S
DUBOIS         FAIR      66  32  28 NW18      30.15S
LANDER         SUNNY     81  32  17 NE5       29.98S
6HR MIN TEMP:  74; 6HR MAX TEMP:  83;

RIVERTON       SUNNY     79  36  21 NW20G25   30.00R
6HR MIN TEMP:  77; 6HR MAX TEMP:  83;

CASPER         SUNNY     81  29  15 NW15      29.97R
6HR MIN TEMP:  79; 6HR MAX TEMP:  85;

DOUGLAS        SUNNY     81  37  20 NW8       29.95R
6HR MIN TEMP:  78; 6HR MAX TEMP:  86;


$$
WYZ021-027>030-104>119-200100-
SOUTHERN WYOMING

CITY           SKY/WX    TMP DP  RH WIND       PRES   REMARKS
EVANSTON       SUNNY     74  39  28 NW9       30.19R
6HR MIN TEMP:  68; 6HR MAX TEMP:  76;

KEMMERER       CLEAR     70  34  26 NW10G21   30.22R
FORT BRIDGER   FAIR      75  40  28 NW12      30.21R
ROCK SPRINGS   SUNNY     74  32  21 W15G25    30.15R
6HR MIN TEMP:  68; 6HR MAX TEMP:  77;

DIXON          FAIR      75  47  36 W3        30.15R
RAWLINS        MOSUNNY   75  34  22 W18       30.13R
6HR MIN TEMP:  70; 6HR MAX TEMP:  79;

SARATOGA       FAIR      73  41  31 W12G20    30.15S
LARAMIE        MOSUNNY   72  41  32 NW17      30.12S
6HR MIN TEMP:  72; 6HR MAX TEMP:  79;

CHEYENNE       MOSUNNY   80  39  23 N14G24    30.03R
6HR MIN TEMP:  80; 6HR MAX TEMP:  88;

TORRINGTON     SUNNY     84  47  27 N9        29.87R
6HR MIN TEMP:  79; 6HR MAX TEMP:  89;

PINE BLUFFS    CLOUDY    72  45  37 SW10      29.99R

$$



USA.gov is the U.S. government's official web portal to all federal, state and local government web resources and services.